[[{"header":{"parameterUnit":"m.s-1","parameterCategory":1,"la1":30.2991,"la2":30.254,"lo1":-89.0895,"lo2":-89.0444,"dy":0.0017,"dx":0.0017,"nx":28,"ny":28,"refTime":"2023-11-11T09:00:00:Z","depth":0,"parameterNumber":2,"parameterNumberName":"U-component_of_WINDS"},"data":[0,0,0,0,0,0,0,0,0,0,0,0,0,0,0,0,0,0,0,0,0,0,0,0,0,0,0,0,0,0,0,0,0,0,0,0,0,0,0,0,0,0,0,0,0,0,0,0,0,0,0,0,0,0,0,0,0,0,-1.4439,-1.444,0,-1.4488,-1.4489,-1.4489,-1.4465,-1.4464,-1.4463,-1.4462,-1.4512,-1.4514,-1.4517,0,0,0,0,0,0,0,0,0,0,0,0,0,-1.4324,-1.4326,-1.4439,-1.444,-1.444,-1.4488,-1.4489,-1.449,-1.4466,-1.4464,-1.4462,-1.4461,-1.4511,-1.4514,-1.4517,0,0,0,0,0,0,0,0,0,0,0,0,0,-1.4374,-1.4327,-1.4439,-1.4434,-1.4434,-1.4488,-1.4489,-1.449,-1.4466,-1.4464,-1.4462,-1.446,-1.451,-1.4514,-1.4518,-1.4579,0,0,-1.4529,-1.4531,0,0,0,0,0,0,0,0,-1.4371,-1.4378,-1.4434,-1.4434,-1.4435,-1.4469,-1.4467,-1.452,-1.4466,-1.4454,-1.4462,-1.4459,-1.4499,-1.4504,-1.4517,-1.4582,-1.4584,-1.4529,-1.4532,-1.4533,-1.4534,0,0,0,0,0,0,0,-1.4367,-1.4376,-1.4458,-1.4435,-1.4435,-1.4429,-1.4434,-1.4477,-1.4487,-1.4455,-1.4453,-1.4459,-1.4499,-1.4514,-1.4518,-1.4584,-1.4529,-1.4533,-1.4535,-1.4537,-1.4703,-1.4705,0,0,0,0,0,0,-1.4364,-1.4373,-1.4457,-1.446,-1.4397,-1.4433,-1.4439,-1.446,-1.4486,-1.4488,-1.4461,-1.4458,-1.4508,-1.4514,-1.452,-1.4595,-1.4533,-1.4537,-1.4539,-1.4701,-1.4703,-1.4706,0,0,0,0,0,0,-1.4362,-1.4372,-1.4455,-1.4416,-1.4426,-1.4437,-1.4461,-1.4462,-1.4476,-1.4491,-1.4492,-1.4474,-1.4507,-1.4514,-1.4565,-1.4596,-1.4539,-1.4542,-1.4698,-1.4702,-1.4704,-1.4745,0,0,0,0,0,0,-1.4359,-1.4371,-1.4395,-1.4417,-1.4428,-1.4499,-1.4463,-1.4464,-1.4483,-1.448,-1.4504,-1.4506,-1.4506,-1.4559,-1.4569,-1.46,-1.4545,-1.4695,-1.47,-1.4703,-1.4741,-1.4749,-1.4756,0,0,0,0,0,-1.4355,-1.4404,-1.4396,-1.4406,-1.4458,-1.4501,-1.4508,-1.4507,-1.4486,-1.451,-1.4519,-1.4505,-1.4591,-1.4565,-1.4575,-1.4608,-1.4694,-1.4699,-1.4703,-1.4737,-1.4747,-1.4756,0,0,0,0,0,0,-1.4385,-1.4407,-1.4398,-1.4456,-1.4477,-1.4497,-1.4527,-1.4518,-1.4545,-1.4541,-1.4538,-1.4544,-1.4597,-1.4607,-1.4578,-1.467,-1.4639,-1.4646,-1.4661,-1.4671,-1.4679,-1.4676,-1.4548,0,0,0,0,0,-1.4399,-1.4432,-1.4449,-1.4498,-1.4509,-1.4517,-1.4535,-1.4533,-1.4554,-1.4563,-1.4576,-1.4597,-1.4629,-1.465,-1.468,-1.4741,-1.4747,-1.4769,-1.4777,-1.4783,-1.479,-1.4824,-1.4835,-1.4721,-1.4721,-1.4721,0,0,-1.4427,-1.4443,-1.4464,-1.4505,-1.4521,-1.4556,-1.4524,-1.4562,-1.4588,-1.4569,-1.4618,-1.4628,-1.4651,-1.4708,-1.4733,-1.4718,-1.4822,-1.4789,-1.4794,-1.4798,-1.483,-1.4841,-1.4851,-1.4725,-1.4724,-1.4724,0,0,-1.4497,-1.4512,-1.4555,-1.4572,-1.4596,-1.4601,-1.4611,-1.4633,-1.4639,-1.4688,-1.4674,-1.4705,-1.4759,-1.4777,-1.4794,-1.487,-1.4859,-1.488,-1.492,-1.4954,-1.4963,-1.4971,-1.4999,-1.501,-1.4886,-1.4886,-1.4886,0,-1.4529,-1.4581,-1.4579,-1.4618,-1.4637,-1.4621,-1.4665,-1.4681,-1.4714,-1.4728,-1.471,-1.4779,-1.4794,-1.4855,-1.4873,-1.4886,-1.4899,-1.4878,-1.4962,-1.497,-1.4977,-1.5004,-1.5015,-1.4889,-1.4888,-1.4888,-1.4888,0,-1.462,-1.4657,-1.4689,-1.4722,-1.4744,-1.4785,-1.4789,-1.4812,-1.4807,-1.4814,-1.4864,-1.4881,-1.4915,-1.4928,-1.4924,-1.4989,-1.4979,-1.4961,-1.4931,-1.499,-1.5016,-1.5026,-1.4892,-1.4891,-1.489,-1.489,0,0,-1.4712,-1.4743,-1.4755,-1.477,-1.4796,-1.4824,-1.4865,-1.4898,-1.4918,-1.4941,-1.4976,-1.5022,-1.5007,-1.5025,-1.5022,-1.5051,-1.5113,-1.503,-1.5031,-1.5047,-1.5187,-1.5201,-1.5213,-1.5104,-1.5106,-1.5108,-1.5185,0,-1.4785,-1.4858,-1.4856,-1.4923,-1.4957,-1.4942,-1.4978,-1.4998,-1.5004,-1.5034,-1.5041,-1.5075,-1.5051,-1.5062,-1.509,-1.5099,-1.5141,-1.5093,-1.5138,-1.5139,-1.5134,-1.5226,-1.5242,-1.5314,-1.5195,-1.5197,-1.5198,0,-1.4881,-1.4907,-1.4978,-1.4999,-1.5014,-1.5046,-1.5076,-1.5105,-1.5127,-1.513,-1.515,-1.5143,-1.5185,-1.5152,-1.5209,-1.5177,-1.5195,-1.5202,-1.5205,-1.5211,-1.5174,-1.5236,-1.5337,-1.5348,-1.5213,-1.5212,-1.5211,0,-1.4943,-1.4996,-1.5046,-1.5059,-1.5084,-1.5108,-1.5119,-1.5139,-1.516,-1.5186,-1.5199,-1.523,-1.5247,-1.5271,-1.5273,-1.5248,-1.5332,-1.5298,-1.5336,-1.5336,-1.5356,-1.5355,-1.5462,-1.5364,-1.5364,-1.5364,-1.5364,0,-1.5026,-1.507,-1.5074,-1.5105,-1.5154,-1.5152,-1.52,-1.521,-1.5228,-1.526,-1.5248,-1.5279,-1.5278,-1.5309,-1.531,-1.5359,-1.5366,-1.537,-1.537,-1.5372,-1.5372,-1.5385,-1.5381,-1.5367,-1.5366,-1.5366,-1.5365,0,-1.5104,-1.5109,-1.5162,-1.5182,-1.5188,-1.5223,-1.524,-1.527,-1.5275,-1.5316,-1.5326,-1.5334,-1.537,-1.5373,-1.5415,-1.5416,-1.5475,-1.5469,-1.5468,-1.5468,-1.5506,-1.5503,-1.5627,-1.5644,-1.5533,-1.5534,-1.5535,0,-1.5158,-1.5192,-1.5215,-1.5236,-1.525,-1.5283,-1.5304,-1.5302,-1.5324,-1.5352,-1.5378,-1.5413,-1.5441,-1.5499,-1.5509,-1.5541,-1.5537,-1.5578,-1.5541,-1.5543,-1.5539,-1.5538,-1.5542,-1.5586,-1.5587,-1.5588,-1.5589,0,-1.5253,-1.5254,-1.5284,-1.5316,-1.5341,-1.5365,-1.5388,-1.5406,-1.5407,-1.5432,-1.5469,-1.5491,-1.5534,-1.5569,-1.56,-1.5612,-1.5601,-1.56,-1.5611,-1.5614,-1.5613,-1.5616,-1.5489,-1.5597,-1.5597,-1.5596,-1.5595,-1.5595,-1.5322,-1.5352,-1.5374,-1.5408,-1.5425,-1.5447,-1.5476,-1.5484,-1.5515,-1.555,-1.5547,-1.5588,-1.5609,-1.565,-1.5664,-1.5697,-1.5683,-1.5698,-1.5702,-1.5707,-1.5712,-1.5606,-1.5702,-1.5702,-1.5701,-1.5701,-1.5701,0,-1.5418,-1.5431,-1.5463,-1.5496,-1.5523,-1.551,-1.5534,-1.5558,-1.5594,-1.5615,-1.5643,-1.5685,-1.5719,-1.5732,-1.5765,-1.5788,-1.5784,-1.5797,-1.5796,-1.58,-1.5721,-1.5709,-1.58,-1.58,-1.58,-1.58,-1.58,-1.58,-1.5472,-1.5522,-1.5525,-1.5584,-1.5596,-1.5637,-1.5652,-1.5672,-1.5689,-1.5737,-1.5765,-1.5773,-1.5791,-1.5825,-1.5855,-1.5858,-1.5872,-1.5887,-1.5888,-1.5815,-1.5805,-1.5796,-1.5785,-1.589,-1.589,-1.5964,-1.5965,-1.5965]},{"header":{"parameterUnit":"m.s-1","parameterCategory":1,"la1":30.2991,"la2":30.254,"lo1":-89.0895,"lo2":-89.0444,"dy":0.0017,"dx":0.0017,"nx":28,"ny":28,"refTime":"2023-11-11T09:00:00:Z","depth":0,"parameterNumber":3,"parameterNumberName":"V-component_of_WINDS"},"data":[0,0,0,0,0,0,0,0,0,0,0,0,0,0,0,0,0,0,0,0,0,0,0,0,0,0,0,0,0,0,0,0,0,0,0,0,0,0,0,0,0,0,0,0,0,0,0,0,0,0,0,0,0,0,0,0,0,0,-3.7792,-3.7793,0,-3.7867,-3.7868,-3.7868,-3.7875,-3.7874,-3.7873,-3.7872,-3.7944,-3.7946,-3.7949,0,0,0,0,0,0,0,0,0,0,0,0,0,-3.7651,-3.7654,-3.7792,-3.7793,-3.7794,-3.7867,-3.7868,-3.7869,-3.7875,-3.7874,-3.7873,-3.7872,-3.7943,-3.7946,-3.7949,0,0,0,0,0,0,0,0,0,0,0,0,0,-3.7718,-3.7655,-3.7792,-3.7806,-3.7808,-3.7866,-3.7868,-3.7869,-3.7875,-3.7874,-3.7873,-3.7871,-3.7942,-3.7946,-3.7949,-3.7998,0,0,-3.7962,-3.7963,0,0,0,0,0,0,0,0,-3.7714,-3.7723,-3.7803,-3.7805,-3.7807,-3.786,-3.7844,-3.7912,-3.7875,-3.7849,-3.7872,-3.7871,-3.7917,-3.7922,-3.7939,-3.8001,-3.8004,-3.7962,-3.7964,-3.7966,-3.7967,0,0,0,0,0,0,0,-3.7709,-3.772,-3.7821,-3.7804,-3.7807,-3.7807,-3.7815,-3.7857,-3.7888,-3.7851,-3.7852,-3.7861,-3.7917,-3.7935,-3.7941,-3.8005,-3.7962,-3.7965,-3.7968,-3.7969,-3.8113,-3.8114,0,0,0,0,0,0,-3.7703,-3.7716,-3.7819,-3.7824,-3.7757,-3.7811,-3.782,-3.7844,-3.7888,-3.7894,-3.7862,-3.7861,-3.7929,-3.7936,-3.7943,-3.8004,-3.7966,-3.797,-3.7972,-3.8111,-3.8113,-3.8114,0,0,0,0,0,0,-3.77,-3.7712,-3.7816,-3.777,-3.7783,-3.7815,-3.7842,-3.7846,-3.7864,-3.7896,-3.7901,-3.7875,-3.7928,-3.7938,-3.7985,-3.8007,-3.7971,-3.7975,-3.8109,-3.8112,-3.8114,-3.8126,0,0,0,0,0,0,-3.7695,-3.7711,-3.773,-3.777,-3.7786,-3.7858,-3.7843,-3.7849,-3.7872,-3.7871,-3.7909,-3.7914,-3.7928,-3.7979,-3.7989,-3.8012,-3.7978,-3.8108,-3.811,-3.8113,-3.8124,-3.8128,-3.8132,0,0,0,0,0,-3.769,-3.7729,-3.7731,-3.7743,-3.7811,-3.7859,-3.7868,-3.7884,-3.7873,-3.7893,-3.7914,-3.7913,-3.8003,-3.7984,-3.7995,-3.8019,-3.8106,-3.811,-3.8113,-3.8122,-3.8127,-3.8132,0,0,0,0,0,0,-3.7688,-3.7734,-3.7737,-3.779,-3.7821,-3.786,-3.7885,-3.7889,-3.7922,-3.792,-3.7937,-3.7946,-3.7993,-3.801,-3.7989,-3.8069,-3.8053,-3.8059,-3.8056,-3.8062,-3.8066,-3.8061,-3.7981,0,0,0,0,0,-3.7694,-3.773,-3.7768,-3.7811,-3.7827,-3.7853,-3.7875,-3.7885,-3.7917,-3.7929,-3.7953,-3.7983,-3.8018,-3.8041,-3.8074,-3.8126,-3.8135,-3.8148,-3.8152,-3.8156,-3.8161,-3.8191,-3.8198,-3.8125,-3.8125,-3.8125,0,0,-3.7705,-3.7736,-3.7757,-3.7812,-3.7837,-3.7874,-3.7864,-3.7903,-3.793,-3.7935,-3.7982,-3.8001,-3.8035,-3.8085,-3.8109,-3.8101,-3.8183,-3.816,-3.8162,-3.8166,-3.8195,-3.8202,-3.8208,-3.8127,-3.8127,-3.8126,0,0,-3.7747,-3.7773,-3.7813,-3.7839,-3.7878,-3.7896,-3.7905,-3.7944,-3.7958,-3.8006,-3.8011,-3.8042,-3.8102,-3.8127,-3.8147,-3.82,-3.8202,-3.821,-3.8233,-3.8262,-3.8268,-3.8273,-3.8294,-3.8301,-3.8215,-3.8215,-3.8215,0,-3.7756,-3.7814,-3.7832,-3.7872,-3.7897,-3.7904,-3.7945,-3.7968,-3.8015,-3.8032,-3.8023,-3.81,-3.8123,-3.8181,-3.8194,-3.8209,-3.8221,-3.8207,-3.8266,-3.8271,-3.8276,-3.8296,-3.8304,-3.8216,-3.8216,-3.8216,-3.8216,0,-3.7825,-3.7864,-3.7892,-3.794,-3.7967,-3.8007,-3.8031,-3.8056,-3.8064,-3.8082,-3.8131,-3.816,-3.8201,-3.8215,-3.8222,-3.8274,-3.8268,-3.8263,-3.8247,-3.8284,-3.8303,-3.8311,-3.8217,-3.8217,-3.8217,-3.8216,0,0,-3.7866,-3.7926,-3.7936,-3.7959,-3.8004,-3.8034,-3.8074,-3.8116,-3.8138,-3.817,-3.8205,-3.8256,-3.8252,-3.8275,-3.8285,-3.831,-3.8353,-3.8302,-3.8303,-3.8312,-3.8414,-3.8419,-3.8428,-3.8354,-3.8355,-3.8356,-3.8412,0,-3.7914,-3.7989,-3.8007,-3.807,-3.8108,-3.8116,-3.8151,-3.8182,-3.82,-3.8234,-3.8253,-3.829,-3.8281,-3.8295,-3.8321,-3.8342,-3.8374,-3.8338,-3.8386,-3.8387,-3.8379,-3.8437,-3.8443,-3.8493,-3.8419,-3.842,-3.8421,0,-3.798,-3.8017,-3.8085,-3.8126,-3.8143,-3.8174,-3.8216,-3.8247,-3.8282,-3.8294,-3.8321,-3.8329,-3.8371,-3.8352,-3.841,-3.8386,-3.8406,-3.842,-3.8422,-3.8428,-3.8408,-3.8447,-3.851,-3.8518,-3.8432,-3.8431,-3.8431,0,-3.8006,-3.8072,-3.8122,-3.8141,-3.819,-3.8213,-3.8234,-3.8268,-3.8293,-3.8328,-3.8344,-3.8383,-3.8404,-3.8433,-3.8451,-3.8436,-3.8508,-3.8491,-3.8519,-3.8519,-3.8535,-3.8534,-3.8604,-3.8545,-3.8545,-3.8545,-3.8545,0,-3.8058,-3.81,-3.8135,-3.8166,-3.8213,-3.8233,-3.8278,-3.8299,-3.833,-3.8364,-3.8372,-3.8404,-3.8425,-3.846,-3.8473,-3.8521,-3.8529,-3.854,-3.8543,-3.854,-3.8539,-3.8555,-3.8552,-3.8547,-3.8547,-3.8546,-3.8546,0,-3.8096,-3.8121,-3.8176,-3.822,-3.8231,-3.8264,-3.83,-3.833,-3.8349,-3.8393,-3.8404,-3.8433,-3.8475,-3.8496,-3.8546,-3.8555,-3.8609,-3.8609,-3.8598,-3.86,-3.8628,-3.8626,-3.8712,-3.8725,-3.8655,-3.8656,-3.8657,0,-3.8129,-3.8162,-3.8209,-3.8234,-3.8257,-3.8296,-3.8323,-3.8343,-3.837,-3.8414,-3.8438,-3.848,-3.8516,-3.8581,-3.8606,-3.8645,-3.8647,-3.8675,-3.8653,-3.865,-3.865,-3.8649,-3.8653,-3.8679,-3.868,-3.868,-3.8681,0,-3.8185,-3.8197,-3.8235,-3.8279,-3.8311,-3.8345,-3.8379,-3.8399,-3.8425,-3.8454,-3.8498,-3.8526,-3.8579,-3.8621,-3.8662,-3.8683,-3.8686,-3.8687,-3.8696,-3.8694,-3.8688,-3.8694,-3.8611,-3.8685,-3.8685,-3.8685,-3.8684,-3.8684,-3.8223,-3.8253,-3.8293,-3.8336,-3.8364,-3.8396,-3.8427,-3.8451,-3.8489,-3.8536,-3.8545,-3.8592,-3.8626,-3.8683,-3.8705,-3.8741,-3.8735,-3.8747,-3.8751,-3.8754,-3.8756,-3.8681,-3.8748,-3.8748,-3.8748,-3.8748,-3.8747,0,-3.8281,-3.8308,-3.8347,-3.8396,-3.843,-3.8433,-3.8471,-3.8499,-3.8541,-3.8574,-3.8609,-3.866,-3.8701,-3.873,-3.8772,-3.8795,-3.8798,-3.8806,-3.8805,-3.881,-3.8758,-3.8748,-3.8803,-3.8803,-3.8803,-3.8803,-3.8803,-3.8803,-3.8316,-3.8369,-3.8385,-3.8452,-3.8477,-3.8525,-3.8547,-3.8576,-3.8603,-3.8661,-3.8696,-3.8715,-3.8747,-3.8791,-3.8829,-3.8836,-3.8852,-3.886,-3.8867,-3.8819,-3.8813,-3.8808,-3.8798,-3.8863,-3.8863,-3.8916,-3.8917,-3.8917]}]]